This demonstration page uses our WeatherBlox Daily Observations layout. Learn more.

40.92945, -100.16068

Hourly Observations for December 24, 2019

Temp ( °F °C ) Dew Point ( °F °C ) Humidity (%) Winds ( mph kmh ) Pressure ( in mb ) Visibility ( mi km ) Precip ( " mm )
12:15 am 00:15 Clear 31 -0.8 28 -2.2 90 90 NNW 3 6 29.93 1014 10 16.0934 0 0
12:35 am 00:35 Clear 31 -0.8 28 -2.2 90 90 NW 5 7 29.93 1014 10 16.0934 0 0
12:55 am 00:55 Clear 31 -0.8 28 -2.2 90 90 WNW 3 6 29.92 1013 10 16.0934 0 0
1:15 am 01:15 Clear 30 -0.9 28 -2 92 92 W 3 6 29.93 1013 10 16.0934 0 0
1:35 am 01:35 Clear 30 -0.9 28 -2 92 92 WNW 6 9 29.93 1013 10 16.0934 0 0
1:55 am 01:55 Clear 31 -0.8 29 -1.9 92 92 WNW 3 6 29.92 1013 10 16.0934 0 0
2:15 am 02:15 Clear 31 -0.7 28 -2 91 91 WNW 5 7 29.91 1013 10 16.0934 0 0
2:35 am 02:35 Clear 31 -0.7 28 -2 91 91 W 5 7 29.91 1013 10 16.0934 0 0
2:55 am 02:55 Clear 31 -0.5 28 -2 90 90 W 6 9 29.91 1013 10 16.0934 0 0
3:15 am 03:15 Clear 31 -0.5 28 -2 90 90 WNW 5 7 29.91 1013 10 16.0934 0 0
3:35 am 03:35 Clear 32 -0.2 28 -2 88 88 WNW 5 7 29.9 1012 10 16.0934 0 0
3:55 am 03:55 Clear 31 -0.6 28 -2 90 90 W 7 11 29.9 1013 10 16.0934 0 0
4:15 am 04:15 Clear 30 -1 28 -2.2 92 92 SW 5 7 29.9 1012 10 16.0934 0 0
4:35 am 04:35 Clear 30 -1.1 28 -2.5 90 90 Calm 29.89 1012 10 16.0934 0 0
4:55 am 04:55 Clear 29 -1.4 28 -2.2 94 94 WSW 3 6 29.9 1013 10 16.0934 0 0
5:15 am 05:15 Clear 30 -1 28 -2.2 92 92 Calm 29.89 1012 10 16.0934 0 0
5:35 am 05:35 Clear 30 -1 28 -2.1 92 92 WNW 5 7 29.89 1012 10 16.0934 0 0
5:55 am 05:55 Clear 29 -1.4 28 -2.3 94 94 Calm 29.89 1012 10 16.0934 0 0
6:15 am 06:15 Clear 29 -1.5 28 -2.5 93 93 WNW 6 9 29.9 1013 10 16.0934 0 0
6:35 am 06:35 Clear 29 -1.8 28 -2.5 95 95 NNW 6 9 29.89 1012 10 16.0934 0 0
6:55 am 06:55 Clear 28 -2 27 -2.8 94 94 WNW 6 9 29.91 1013 10 16.0934 0 0
7:15 am 07:15 Clear 28 -2.5 26 -3.2 95 95 NNW 6 9 29.91 1013 10 16.0934 0 0
7:35 am 07:35 Clear 28 -2.5 26 -3.4 94 94 Calm 29.91 1013 10 16.0934 0 0
7:55 am 07:55 Clear 27 -2.9 26 -3.5 96 96 Calm 29.9 1012 10 16.0934 0 0
8:15 am 08:15 Sunny 27 -2.8 26 -3.4 96 96 Calm 29.88 1012 10 16.0934 0 0
8:35 am 08:35 Sunny 28 -2.5 26 -3.2 95 95 Calm 29.89 1012 10 16.0934 0 0
8:55 am 08:55 Sunny 28 -2.1 27 -2.9 94 94 Calm 29.88 1012 10 16.0934 0 0
9:15 am 09:15 Sunny 29 -1.6 28 -2.5 94 94 W 3 6 29.89 1012 10 16.0934 0 0
9:35 am 09:35 Sunny 31 -0.6 29 -1.8 92 92 WSW 5 7 29.89 1012 10 16.0934 0 0
9:55 am 09:55 Sunny 32 0 29 -1.4 90 90 NW 3 6 29.89 1012 10 16.0934 0 0
10:15 am 10:15 Sunny 33 0.4 31 -0.8 92 92 NNW 6 9 29.88 1012 10 16.0934 0 0
10:35 am 10:35 Sunny 35 1.6 32 -0.1 89 89 NNE 7 11 29.84 1011 10 16.0934 0 0
10:55 am 10:55 Sunny 38 3.1 32 0 80 80 NE 7 11 29.82 1010 10 16.0934 0 0
11:15 am 11:15 Sunny 41 5 32 0 70 70 E 3 6 29.81 1009 10 16.0934 0 0
11:35 am 11:35 Sunny 44 6.7 33 0.8 66 66 E 8 13 29.77 1008 10 16.0934 0 0
11:55 am 11:55 Sunny 46 7.7 32 0 59 59 E 5 7 29.77 1008 10 16.0934 0 0
12:15 pm 12:15 Sunny 46 8 32 0 57 57 E 3 6 29.77 1008 10 16.0934 0 0
12:35 pm 12:35 Sunny 46 8 32 0.1 58 58 E 7 11 29.73 1007 10 16.0934 0 0
12:55 pm 12:55 Sunny 46 8 32 0 57 57 E 10 17 29.71 1006 10 16.0934 0 0
1:15 pm 13:15 Sunny 47 8.2 32 0 57 57 E 12 19 29.7 1006 10 16.0934 0 0
1:35 pm 13:35 Sunny 47 8.1 32 -0.1 57 57 ENE 8 13 29.71 1006 10 16.0934 0 0
1:55 pm 13:55 Sunny 47 8.5 32 0 55 55 NE 6 9 29.71 1006 10 16.0934 0 0
2:15 pm 14:15 Sunny 47 8.5 32 -0.2 55 55 ENE 7 11 29.7 1006 10 16.0934 0 0
2:35 pm 14:35 Sunny 47 8.5 32 0.2 56 56 E 9 15 29.69 1006 10 16.0934 0 0
2:55 pm 14:55 Sunny 47 8.5 32 0.1 56 56 E 9 15 29.69 1006 10 16.0934 0 0
3:15 pm 15:15 Sunny 47 8.1 31 -0.3 56 56 ENE 9 15 29.7 1006 10 16.0934 0 0
3:35 pm 15:35 Sunny 46 8 32 -0.2 57 57 ENE 8 13 29.71 1006 10 16.0934 0 0
3:55 pm 15:55 Sunny 46 8 32 0 57 57 ENE 3 6 29.73 1007 10 16.0934 0 0
4:15 pm 16:15 Sunny 45 7.3 32 -0.2 59 59 E 6 9 29.74 1007 10 16.0934 0 0
4:35 pm 16:35 Sunny 42 5.7 32 -0.1 67 67 ENE 7 11 29.75 1007 10 16.0934 0 0
4:55 pm 16:55 Sunny 42 5.4 32 0 68 68 Calm 29.77 1008 10 16.0934 0 0
5:15 pm 17:15 Sunny 40 4.4 31 -0.5 71 71 Calm 29.78 1009 10 16.0934 0 0
5:35 pm 17:35 Clear 38 3.1 31 -0.6 77 77 E 6 9 29.78 1008 10 16.0934 0 0
5:55 pm 17:55 Clear 37 2.6 30 -1 77 77 NE 8 13 29.78 1008 10 16.0934 0 0
6:15 pm 18:15 Clear 36 2.4 30 -1 79 79 ENE 6 9 29.78 1009 10 16.0934 0 0
6:35 pm 18:35 Clear 37 3 31 -0.8 76 76 E 6 9 29.78 1008 10 16.0934 0 0
6:55 pm 18:55 Clear 37 3 31 -0.7 77 77 E 6 9 29.76 1008 10 16.0934 0 0
7:15 pm 19:15 Clear 37 2.5 31 -0.7 80 80 ENE 3 6 29.77 1008 10 16.0934 0 0
7:35 pm 19:35 Clear 38 3.1 30 -1 75 75 Calm 29.77 1008 10 16.0934 0 0
7:55 pm 19:55 Clear 37 2.6 31 -0.6 80 80 Calm 29.76 1008 10 16.0934 0 0
8:15 pm 20:15 Clear 33 0.8 29 -1.4 85 85 WSW 3 6 29.79 1009 10 16.0934 0 0
8:35 pm 20:35 Clear 32 0 29 -1.5 90 90 WNW 6 9 29.8 1009 10 16.0934 0 0
8:55 pm 20:55 Clear 32 -0.2 29 -1.9 88 88 NW 7 11 29.8 1009 10 16.0934 0 0
9:15 pm 21:15 Clear 31 -0.5 28 -2 90 90 NW 8 13 29.8 1009 10 16.0934 0 0
9:35 pm 21:35 Clear 32 -0.2 29 -1.8 89 89 NNW 3 6 29.81 1009 10 16.0934 0 0
9:55 pm 21:55 Clear 31 -0.7 28 -2 91 91 Calm 29.8 1009 10 16.0934 0 0
10:15 pm 22:15 Clear 29 -1.4 28 -2.1 95 95 N 6 9 29.8 1009 10 16.0934 0 0
10:35 pm 22:35 Clear 30 -1.3 28 -2.1 94 94 NE 5 7 29.8 1009 10 16.0934 0 0
10:55 pm 22:55 Clear 29 -1.6 28 -2.4 94 94 NNE 6 9 29.8 1009 10 16.0934 0 0
11:15 pm 23:15 Clear 29 -1.6 28 -2.1 96 96 N 5 7 29.8 1009 10 16.0934 0 0
11:35 pm 23:35 Clear 27 -2.9 26 -3.3 97 97 NNW 3 6 29.83 1010 10 16.0934 0 0
11:55 pm 23:55 Clear 28 -2.5 27 -2.7 99 99 Calm 29.82 1010 10 16.0934 0 0

Powered by AerisWeather